Lid_Strength_Index
7 7 6 6 6 5 3 2 1 0 0 0 0 0 0 1 1 1 1 1 1 2
7 7 8 7 6 5 4 3 3 2 2 1 1 1 0 1 1 1 1 1 1 2
8 8 8 7 6 6 5 4 4 4 4 3 2 2 2 1 1 1 1 1 1 1
8 8 7 7 7 7 6 6 6 6 6 5 5 4 3 2 1 2 1 1 2 2
9 8 8 8 7 7 7 7 7 7 6 6 5 4 3 2 1 2 2 2 2 2
9 9 9 8 8 8 8 8 8 7 8 8 7 7 6 3 3 2 2 2 2 2
9 9 9 9 10 9 9 8 8 8 8 8 8 7 6 5 4 3 1 1 1 1
10 10 10 10 10 9 9 8 7 8 9 8 7 5 4 3 3 2 2 2 1 1
10 10 10 10 10 10 9 9 9 9 9 8 6 6 6 5 5 2 2 2 2 1
11 10 10 10 10 10 10 10 9 9 8 7 6 7 7 6 4 3 2 2 2 2
11 11 11 10 10 10 10 10 9 8 7 7 6 7 8 6 4 3 1 1 1 2
11 12 11 11 10 10 10 9 9 7 7 7 7 8 8 6 5 4 3 2 1 1
11 11 11 11 10 10 9 8 7 6 6 6 7 8 8 7 5 4 4 2 1 5
11 11 11 11 10 9 7 7 7 7 6 6 7 7 9 8 5 5 3 3 2 2